User: anonymous   Login
Location: Unspecified
(0.0000°N, 0.0000°E)
Time: 19:36:06
(UTC+00:00)
Language:

COSMOS 2251 DEB - Orbit

View from above orbital plane
View from above orbital plane
View from above satellite
View from above satellite

Ground track
Ground track

The orbit data is extracted from the following two-line orbital elements,

1 36074U 93036AYM 24062.43879665  .00003257  00000-0  11192-2 0  9996
2 36074  73.9940 105.5587 0052399 346.6901  13.2865 14.35681745765481
Epoch (UTC): 02 March 2024 10:31:52
Eccentricity: 0.0052399
inclination: 73.9940°
perigee height: 735 km
apogee height: 810 km
right ascension of ascending node: 105.5587°
argument of perigee: 346.6901°
revolutions per day: 14.35681745
mean anomaly at epoch: 13.2865°
orbit number at epoch: 76548

The dashed part of the orbit path shows where the satellite is in the earth's shadow,  

DLR